Location: Oshawa
(43.9000°N, 78.8670°W)
Time: 06:42:09
(UTC-04:00)

Amateur Radio Satellites - All Passes

Search period start: 26 May 2016 06:12
Search period end: 27 May 2016 06:12
Location: Oshawa, 43.9000°N, 78.8670°W

Satellite Date Start Highest point End Downlink Frequencies (MHz)
Time Altitude Azimuth
Cosmos 2504 26 May 06:14:19 06:22:31 63° 268° (W) 06:31:09 435.465 / 435.565
AO-85 26 May 06:21:59 06:26:34 28° 113° (ESE) 06:31:07 145.980
ISS 26 May 06:28:06 06:29:04 11° 229° (SW) 06:30:02 145.825
LilacSat-2 26 May 06:34:18 06:36:14 13° 91° (E) 06:38:09 437.200
AO-7 26 May 06:35:59 06:43:37 41° 301° (WNW) 06:51:15 29.400- 29.500
STRAND 1 26 May 06:44:07 06:48:30 30° 65° (ENE) 06:52:53 437.568
CUTE-I 26 May 06:51:03 06:55:36 28° 95° (E) 07:00:08 437.470
Cosmos 2491 26 May 06:57:43 07:04:44 26° 296° (WNW) 07:11:47 435.465 / 435.565
BRITE-PL 26 May 07:13:46 07:18:52 52° 98° (E) 07:23:33 437.365/2234.400
NOAA 18 26 May 07:27:33 07:33:01 68° 103° (ESE) 07:38:28 137.9125
HORYU 2 26 May 07:41:45 07:43:58 14° 300° (WNW) 07:46:10 437.375
Cubesat XI-IV 26 May 07:43:35 07:48:59 79° 104° (ESE) 07:54:21 437.490
NOAA 15 26 May 07:45:17 07:50:36 71° 288° (WNW) 07:55:51 137.62
GOMX 1 26 May 07:47:39 07:52:19 51° 99° (E) 07:56:39 467.674
SO-50 26 May 07:48:14 07:48:50 10° 24° (NNE) 07:49:26 436.795
GONETS M04 26 May 07:57:35 08:03:22 19° 59° (ENE) 08:09:07
HO-68 26 May 07:58:34 08:02:47 16° 88° (E) 08:06:59 435.675
AO-85 26 May 08:01:34 08:06:52 51° 310° (NW) 08:12:03 145.980
LilacSat-2 26 May 08:07:11 08:10:47 44° 287° (WNW) 08:14:23 437.200
Cosmos 2504 26 May 08:11:36 08:14:16 12° 287° (WNW) 08:16:59 435.465 / 435.565
CANX-2 26 May 08:19:48 08:22:35 17° 91° (E) 08:25:21 2200.000
STRAND 1 26 May 08:22:54 08:27:33 36° 263° (W) 08:32:16 437.568
SEEDS 26 May 08:26:48 08:28:37 12° 89° (E) 08:30:25 437.485
CUTE-I 26 May 08:30:46 08:35:46 41° 292° (WNW) 08:40:46 437.470
AO-7 26 May 08:32:32 08:34:07 11° 324° (NW) 08:35:43 29.400- 29.500
PRISM 26 May 08:33:47 08:37:53 63° 73° (ENE) 08:42:00 437.425
DOVE 4 26 May 08:45:13 08:49:42 86° 286° (WNW) 08:53:56 437.250
CUTE 1.7 + AOD 2 26 May 08:46:40 08:50:23 28° 95° (E) 08:54:04 437.475
BRITE-PL 26 May 08:53:01 08:56:53 21° 298° (WNW) 09:00:34 437.365/2234.400
CUBEBUG 2 26 May 08:54:52 08:55:40 10° 89° (E) 08:56:28 437.445
Cosmos 2499 26 May 09:01:10 09:08:18 28° 66° (ENE) 09:15:38 435.465 / 435.565
AUBIESAT-1 26 May 09:05:04 09:08:06 32° 103° (ESE) 09:11:06 437.475
NOAA 18 26 May 09:09:22 09:13:08 19° 301° (WNW) 09:16:55 137.9125
M-CUBED/EXP-1 PRIME 26 May 09:10:08 09:13:21 47° 105° (ESE) 09:16:30 437.505
AIST 1 26 May 09:12:25 09:16:49 87° 260° (W) 09:21:08
COMPASS 1 26 May 09:14:33 09:18:16 29° 96° (E) 09:21:57 437.405
AAUSAT CUBESAT 2 26 May 09:18:52 09:22:25 26° 95° (E) 09:25:58 437.432
Cubesat XI-IV 26 May 09:25:13 09:28:23 16° 302° (WNW) 09:31:34 437.490
UWE-3 26 May 09:25:22 09:28:03 17° 92° (E) 09:30:46 435.000/436.395/437.385
SO-50 26 May 09:26:15 09:30:42 39° 47° (NE) 09:35:00 436.795
GOMX 1 26 May 09:26:41 09:29:57 19° 298° (WNW) 09:33:05 467.674
NOAA 15 26 May 09:28:00 09:29:25 11° 306° (NW) 09:30:50 137.62
CINEMA 3 26 May 09:28:06 09:32:18 83° 103° (ESE) 09:36:26 145.822/145.860
FUNcube-1 26 May 09:34:47 09:36:49 13° 90° (E) 09:38:51 145.935
HO-68 26 May 09:44:13 09:51:27 87° 106° (ESE) 09:58:39 435.675
ANTELSAT 26 May 09:45:25 09:48:37 20° 65° (ENE) 09:51:48 437.575/2403.000
AO-85 26 May 09:45:54 09:48:34 14° 331° (NNW) 09:51:12 145.980
O/OREOS (USA 219) 26 May 09:50:06 09:53:58 28° 104° (ESE) 09:57:51 437.305
GONETS M04 26 May 09:52:55 10:01:41 83° 82° (E) 10:10:23
CANX-2 26 May 09:54:34 09:58:40 46° 288° (WNW) 10:02:46 2200.000
SEEDS 26 May 10:00:31 10:04:44 62° 285° (WNW) 10:08:55 437.485
DELFI C3 26 May 10:03:26 10:05:50 15° 91° (E) 10:08:13 145.870
PRISM 26 May 10:12:03 10:13:36 12° 270° (W) 10:15:10 437.425
Oscar 11 26 May 10:19:17 10:23:31 49° 99° (E) 10:27:43 145.826/435.025
PCSat 26 May 10:20:34 10:25:38 43° 113° (ESE) 10:30:45 145.827
CUTE 1.7 + AOD 2 26 May 10:22:31 10:26:09 28° 292° (WNW) 10:29:48 437.475
CUBEBUG 2 26 May 10:28:38 10:32:46 68° 284° (WNW) 10:36:55 437.445
ZACube-1 26 May 10:30:16 10:34:23 57° 100° (E) 10:38:33 437.345
UNISAT 6 26 May 10:39:21 10:43:43 74° 74° (ENE) 10:48:01 437.425
AUBIESAT-1 26 May 10:40:24 10:42:24 15° 300° (WNW) 10:44:24 437.475
POPSAT HIP 1 26 May 10:44:58 10:47:40 17° 64° (ENE) 10:50:23 437.405
QB50P1 26 May 10:45:28 10:48:13 17° 64° (ENE) 10:51:00 145.935-145.965
M-CUBED/EXP-1 PRIME 26 May 10:46:36 10:47:33 11° 303° (WNW) 10:48:29 437.505
QB50P2 26 May 10:46:58 10:49:55 19° 64° (ENE) 10:52:52 145.880/145.840
TIGRISAT 26 May 10:47:27 10:51:50 85° 75° (ENE) 10:56:09 435.000
POLYITAN 1 26 May 10:49:23 10:52:22 19° 65° (ENE) 10:55:20 437.675
COMPASS 1 26 May 10:50:13 10:53:43 26° 292° (WNW) 10:57:13 437.405
HUMSAT D 26 May 10:52:56 10:56:23 25° 95° (E) 10:59:50 437.325/437.525
Cosmos 2499 26 May 10:53:37 11:02:06 71° 266° (W) 11:10:55 435.465 / 435.565
AAUSAT CUBESAT 2 26 May 10:54:16 10:57:53 28° 291° (WNW) 11:01:28 437.432
UWE-3 26 May 11:00:48 11:04:45 43° 288° (WNW) 11:08:44 435.000/436.395/437.385
NANOSAT C BR1 26 May 11:04:00 11:07:27 25° 67° (ENE) 11:10:54 145.865
SO-50 26 May 11:07:02 11:11:02 29° 246° (WSW) 11:14:57 436.795
CINEMA 3 26 May 11:08:41 11:08:46 10° 301° (WNW) 11:08:52 145.822/145.860
FUNcube-1 26 May 11:09:19 11:13:24 56° 287° (WNW) 11:17:32 145.935
CUSAT 1 26 May 11:12:31 11:16:48 19° 78° (ENE) 11:21:37 437.405
ANTELSAT 26 May 11:20:59 11:25:06 40° 261° (W) 11:29:10 437.575/2403.000
O/OREOS (USA 219) 26 May 11:29:11 11:33:17 32° 302° (WNW) 11:37:24 437.305
HO-68 26 May 11:33:15 11:38:18 21° 306° (NW) 11:43:20 435.675
DELFI C3 26 May 11:37:05 11:40:57 45° 288° (WNW) 11:44:48 145.870
DUCHIFAT 1 26 May 11:42:31 11:46:40 60° 73° (ENE) 11:50:50 145.980
ESTCUBE 1 26 May 11:44:14 11:47:23 18° 92° (E) 11:50:31 437.505/2401.250
BEESAT 2 26 May 11:45:42 11:46:52 11° 108° (ESE) 11:48:01 435.950
JAS-2 26 May 11:48:29 11:54:24 26° 57° (ENE) 12:00:33 435.910
GONETS M04 26 May 11:51:22 11:57:22 21° 282° (WNW) 12:03:23
Oscar 11 26 May 11:56:25 11:59:17 18° 296° (WNW) 12:02:09 145.826/435.025
PCSat 26 May 12:04:17 12:09:09 33° 312° (NW) 12:14:03 145.827
BUGSAT 1 26 May 12:07:11 12:11:17 53° 73° (ENE) 12:15:22 437.445
ZACube-1 26 May 12:08:00 12:10:15 14° 297° (WNW) 12:12:31 437.345
CUBEBUG 1 26 May 12:09:45 12:13:13 22° 94° (E) 12:16:38 437.445
VELOX 1 26 May 12:12:33 12:16:06 23° 94° (E) 12:19:38 145.980
DX 1 26 May 12:12:46 12:15:56 19° 93° (E) 12:19:05 434.975-435.025
POPSAT HIP 1 26 May 12:18:58 12:23:05 49° 260° (W) 12:27:13 437.405
QB50P1 26 May 12:19:33 12:23:39 47° 260° (W) 12:27:46 145.935-145.965
UNISAT 6 26 May 12:19:57 12:20:55 11° 271° (W) 12:21:53 437.425
BEESAT 3 26 May 12:20:29 12:24:15 45° 119° (ESE) 12:28:03 437.485
QB50P2 26 May 12:21:22 12:25:25 43° 261° (W) 12:29:29 145.880/145.840
POLYITAN 1 26 May 12:23:51 12:27:53 42° 261° (W) 12:31:55 437.675
HUMSAT D 26 May 12:28:23 12:32:00 29° 291° (WNW) 12:35:38 437.325/437.525
DANDE 26 May 12:33:04 12:37:56 35° 86° (E) 12:44:06 436.750
50 SAT 26 May 12:38:29 12:42:07 49° 100° (E) 12:45:44 437.505
NANOSAT C BR1 26 May 12:39:19 12:43:04 31° 263° (W) 12:46:50 145.865
SPROUT 26 May 12:43:51 12:47:02 20° 93° (E) 12:50:11 437.525
AISAT 26 May 12:47:52 12:52:15 57° 101° (E) 12:56:35 437.250
Cosmos 2499 26 May 12:49:39 12:53:43 14° 286° (WNW) 12:57:51 435.465 / 435.565
CUSAT 1 26 May 12:51:26 12:57:41 84° 281° (W) 13:05:25 437.405
Oscar 19 26 May 12:52:21 12:56:45 29° 65° (ENE) 13:01:09 437.125/150
UKube-1 26 May 13:04:04 13:08:20 55° 101° (E) 13:12:32 .
Gurwin Techsat 1B 26 May 13:04:27 13:07:47 17° 59° (ENE) 13:11:07 435.225
TISAT 1 26 May 13:14:55 13:16:26 12° 90° (E) 13:17:59 437.305
ESTCUBE 1 26 May 13:20:04 13:24:27 47° 289° (WNW) 13:28:48 437.505/2401.250
BEESAT 2 26 May 13:20:09 13:24:07 72° 306° (NW) 13:28:07 435.950
DUCHIFAT 1 26 May 13:20:52 13:22:45 13° 270° (W) 13:24:37 145.980
JAS-2 26 May 13:31:15 13:38:34 77° 257° (WSW) 13:46:27 435.910
ITAMSAT 1 26 May 13:33:24 13:35:31 12° 56° (NE) 13:37:37 435.822/435.867
AIST 2 26 May 13:42:09 13:44:04 13° 109° (ESE) 13:45:58 435.215
BUGSAT 1 26 May 13:44:42 13:46:58 14° 269° (W) 13:49:13 437.445
CUBEBUG 1 26 May 13:45:35 13:49:35 35° 291° (WNW) 13:53:34 437.445
DX 1 26 May 13:48:12 13:52:19 41° 290° (WNW) 13:56:23 434.975-435.025
VELOX 1 26 May 13:48:37 13:52:39 35° 291° (WNW) 13:56:40 145.980
AO-7 26 May 13:54:28 13:59:56 20° 47° (NE) 14:05:22 29.400- 29.500
BEESAT 3 26 May 13:59:07 14:02:10 21° 317° (NW) 14:05:14 437.485
50 SAT 26 May 14:13:40 14:15:26 13° 296° (WNW) 14:17:12 437.505
DANDE 26 May 14:15:27 14:20:38 39° 292° (WNW) 14:27:17 436.750
SPROUT 26 May 14:19:11 14:23:07 37° 290° (WNW) 14:27:02 437.525
AISAT 26 May 14:25:36 14:28:16 16° 298° (WNW) 14:30:56 437.250
Oscar 19 26 May 14:31:03 14:35:54 39° 262° (W) 14:40:47 437.125/150
CUSAT 1 26 May 14:36:41 14:41:14 19° 304° (NW) 14:46:18 437.405
UKube-1 26 May 14:41:19 14:43:56 16° 298° (WNW) 14:46:33 .
Gurwin Techsat 1B 26 May 14:41:50 14:47:08 74° 257° (WSW) 14:52:28 435.225
TISAT 1 26 May 14:48:23 14:52:31 63° 286° (WNW) 14:56:38 437.305
SWISSCUBE 26 May 14:49:51 14:53:58 28° 95° (E) 14:58:03 437.505
AO-85 26 May 14:52:24 14:56:45 32° 44° (NE) 15:00:44 145.980
ITUPSAT 1 26 May 14:55:14 14:59:21 28° 95° (E) 15:03:27 437.325
BEESAT 2 26 May 15:01:08 15:02:42 12° 325° (NW) 15:04:16 435.950
Cosmos 2491 26 May 15:07:06 15:15:17 41° 71° (ENE) 15:23:22 435.465 / 435.565
ITAMSAT 1 26 May 15:08:59 15:14:09 83° 75° (ENE) 15:19:22 435.822/435.867
YUBILEINY 26 May 15:13:46 15:18:29 16° 75° (ENE) 15:23:13 435.215
AIST 2 26 May 15:17:54 15:22:00 66° 306° (NW) 15:26:08 435.215
BEESAT 26 May 15:19:23 15:24:02 48° 100° (E) 15:28:39 436.000
JAS-2 26 May 15:20:48 15:24:51 15° 277° (W) 15:29:03 435.910
AO-7 26 May 15:43:07 15:51:22 75° 68° (ENE) 15:59:41 29.400- 29.500
RS-15 26 May 16:13:36 16:20:03 17° 95° (E) 16:26:37 29.354- 29.394
SWISSCUBE 26 May 16:27:27 16:31:47 35° 292° (WNW) 16:36:07 437.505
ITUPSAT 1 26 May 16:32:52 16:37:12 35° 292° (WNW) 16:41:32 437.325
AO-85 26 May 16:33:02 16:37:12 33° 246° (WSW) 16:41:02 145.980
KKS-1 26 May 16:36:55 16:41:04 38° 98° (E) 16:45:11 437.445
MOZHAYETS 4 26 May 16:42:33 16:46:47 35° 97° (E) 16:51:01
BRITE-PL 26 May 16:50:36 16:52:35 12° 56° (NE) 16:54:34 437.365/2234.400
ITAMSAT 1 26 May 16:52:05 16:54:17 13° 272° (W) 16:56:28 435.822/435.867
BEESAT 26 May 16:57:57 17:01:29 21° 297° (WNW) 17:05:01 436.000
AIST 2 26 May 16:59:42 17:01:18 12° 327° (NNW) 17:02:53 435.215
HORYU 2 26 May 17:02:37 17:07:01 76° 75° (ENE) 17:11:27 437.375
Cosmos 2491 26 May 17:03:59 17:12:13 47° 272° (W) 17:20:23 435.465 / 435.565
Cosmos 2504 26 May 17:04:14 17:09:13 20° 79° (ENE) 17:14:20 435.465 / 435.565
YUBILEINY 26 May 17:05:07 17:13:47 80° 95° (E) 17:22:30 435.215
STARS 26 May 17:16:07 17:20:23 51° 100° (E) 17:24:38 437.465
NOAA 18 26 May 17:16:37 17:20:43 22° 61° (ENE) 17:24:49 137.9125
GOMX 1 26 May 17:22:47 17:23:59 11° 56° (ENE) 17:25:10 467.674
PCSat 26 May 17:25:16 17:27:14 12° 30° (NNE) 17:29:11 145.827
NOAA 15 26 May 17:27:58 17:32:31 30° 65° (ENE) 17:37:06 137.62
Cubesat XI-IV 26 May 17:28:52 17:32:49 22° 61° (ENE) 17:36:46 437.490
AO-7 26 May 17:38:24 17:44:53 25° 267° (W) 17:51:27 29.400- 29.500
CUBESAT XI-V 26 May 18:04:27 18:08:35 30° 95° (E) 18:12:41 437.345
KKS-1 26 May 18:13:59 18:17:25 22° 295° (WNW) 18:20:50 437.445
CUTE-I 26 May 18:14:05 18:19:12 51° 70° (ENE) 18:24:20 437.470
DOVE 4 26 May 18:15:55 18:18:55 16° 61° (ENE) 18:21:51 437.250
RS-15 26 May 18:18:51 18:30:05 73° 118° (ESE) 18:41:59 29.354- 29.394
MOZHAYETS 4 26 May 18:19:58 18:23:48 26° 294° (WNW) 18:27:38
BRITE-PL 26 May 18:24:25 18:30:00 69° 74° (ENE) 18:35:41 437.365/2234.400
HO-68 26 May 18:30:06 18:34:15 17° 50° (NE) 18:38:25 435.675
HORYU 2 26 May 18:42:59 18:44:06 11° 271° (W) 18:45:13 437.375
LilacSat-2 26 May 18:49:58 18:53:47 78° 257° (WSW) 18:57:35 437.200
STARS 26 May 18:53:33 18:56:22 17° 297° (WNW) 18:59:09 437.465
Cosmos 2504 26 May 18:54:24 19:01:35 75° 280° (W) 19:09:15 435.465 / 435.565
NOAA 18 26 May 18:55:36 19:00:58 58° 258° (WSW) 19:06:21 137.9125
GOMX 1 26 May 18:55:38 19:01:05 67° 74° (ENE) 19:06:26 467.674
CINEMA 3 26 May 18:57:24 18:58:36 11° 60° (ENE) 18:59:48 145.822/145.860
YUBILEINY 26 May 19:04:56 19:11:38 24° 297° (WNW) 19:18:22 435.215
PCSat 26 May 19:06:46 19:12:02 47° 53° (NE) 19:17:15 145.827
NOAA 15 26 May 19:07:14 19:12:09 39° 262° (W) 19:17:08 137.62
Cubesat XI-IV 26 May 19:07:16 19:12:29 56° 259° (W) 19:17:44 437.490
CANX-2 26 May 19:14:36 19:16:59 15° 63° (ENE) 19:19:23 2200.000
SEEDS 26 May 19:21:01 19:22:14 11° 61° (ENE) 19:23:28 437.485
CUTE 1.7 + AOD 2 26 May 19:40:55 19:44:17 24° 67° (ENE) 19:47:41 437.475
CUBESAT XI-V 26 May 19:41:47 19:45:56 31° 292° (WNW) 19:50:04 437.345
DOVE 4 26 May 19:50:47 19:56:02 77° 258° (WSW) 20:01:07 437.250
AUBIESAT-1 26 May 19:51:47 19:55:53 63° 69° (ENE) 19:59:41 437.475
CUBEBUG 2 26 May 19:54:10 19:55:58 12° 62° (ENE) 19:57:45 437.445
CUTE-I 26 May 19:55:30 19:59:31 22° 267° (W) 20:03:36 437.470
M-CUBED/EXP-1 PRIME 26 May 19:57:17 20:01:31 89° 114° (ESE) 20:05:27 437.505
O/OREOS (USA 219) 26 May 19:58:00 20:02:28 68° 64° (ENE) 20:06:55 437.305
BEESAT 2 26 May 20:00:15 20:02:38 15° 38° (NE) 20:05:00 435.950
BRITE-PL 26 May 20:05:05 20:08:56 19° 271° (W) 20:12:51 437.365/2234.400
COMPASS 1 26 May 20:06:53 20:10:13 24° 67° (ENE) 20:13:34 437.405
AAUSAT CUBESAT 2 26 May 20:10:47 20:13:56 21° 66° (ENE) 20:17:06 437.432
HO-68 26 May 20:13:42 20:20:49 75° 70° (ENE) 20:27:58 435.675
UWE-3 26 May 20:24:02 20:26:51 17° 65° (ENE) 20:29:38 435.000/436.395/437.385
CINEMA 3 26 May 20:30:18 20:35:05 87° 76° (ENE) 20:39:41 145.822/145.860
STRAND 1 26 May 20:31:17 20:36:26 69° 102° (ESE) 20:41:34 437.568
FUNcube-1 26 May 20:32:16 20:34:18 13° 62° (ENE) 20:36:19 145.935
RS-15 26 May 20:32:39 20:43:31 44° 325° (NW) 20:54:58 29.354- 29.394
GOMX 1 26 May 20:35:53 20:39:33 18° 270° (W) 20:43:12 467.674
BEESAT 3 26 May 20:36:26 20:40:14 43° 50° (NE) 20:44:01 437.485
CANX-2 26 May 20:48:17 20:52:24 55° 260° (W) 20:56:34 2200.000
PCSat 26 May 20:50:39 20:55:10 27° 251° (WSW) 20:59:40 145.827
DELFI C3 26 May 20:52:08 20:53:30 12° 62° (ENE) 20:54:53 145.870
Cosmos 2504 26 May 20:52:51 20:56:35 14° 304° (WNW) 21:00:26 435.465 / 435.565
SEEDS 26 May 20:53:09 20:57:19 77° 258° (WSW) 21:01:32 437.485
GONETS M04 26 May 21:02:33 21:08:14 19° 77° (ENE) 21:13:54
Oscar 11 26 May 21:15:12 21:19:16 44° 71° (ENE) 21:23:22 145.826/435.025
CUTE 1.7 + AOD 2 26 May 21:16:15 21:20:00 31° 264° (W) 21:23:47 437.475
ZACube-1 26 May 21:27:14 21:31:22 52° 73° (ENE) 21:35:26 437.345
CUBEBUG 2 26 May 21:27:41 21:32:04 72° 257° (WSW) 21:36:21 437.445
AUBIESAT-1 26 May 21:29:11 21:30:37 12° 263° (W) 21:32:03 437.475
ISS 26 May 21:31:41 21:33:24 14° 132° (SE) 21:35:08 145.825
BEESAT 2 26 May 21:36:59 21:40:59 79° 239° (WSW) 21:44:58 435.950
O/OREOS (USA 219) 26 May 21:39:26 21:41:15 12° 262° (W) 21:43:04 437.305
COMPASS 1 26 May 21:41:59 21:45:39 30° 264° (W) 21:49:21 437.405
Cosmos 2499 26 May 21:42:45 21:47:09 17° 76° (ENE) 21:51:43 435.465 / 435.565
AIST 1 26 May 21:42:46 21:47:01 51° 94° (E) 21:51:18
CUSAT 1 26 May 21:44:21 21:49:42 19° 57° (ENE) 21:54:37 437.405
AAUSAT CUBESAT 2 26 May 21:45:27 21:49:13 34° 263° (W) 21:53:02 437.432
HUMSAT D 26 May 21:45:58 21:49:03 21° 66° (ENE) 21:52:07 437.325/437.525
PRISM 26 May 21:49:05 21:53:18 85° 104° (ESE) 21:57:28 437.425
UWE-3 26 May 21:58:50 22:03:00 46° 261° (W) 22:07:06 435.000/436.395/437.385
AIST 2 26 May 22:00:21 22:03:12 18° 39° (NE) 22:06:04 435.215
HO-68 26 May 22:03:58 22:09:12 22° 269° (W) 22:14:29 435.675
FUNcube-1 26 May 22:05:53 22:10:04 62° 259° (W) 22:14:13 145.935
STRAND 1 26 May 22:11:45 22:15:04 17° 300° (WNW) 22:18:22 437.568
CINEMA 3 26 May 22:12:41 22:12:45 10° 272° (W) 22:12:48 145.822/145.860
BEESAT 3 26 May 22:14:50 22:17:39 19° 248° (WSW) 22:20:26 437.485
DELFI C3 26 May 22:23:53 22:27:49 66° 259° (W) 22:31:48 145.870
UNISAT 6 26 May 22:31:09 22:33:13 13° 90° (E) 22:35:17 437.425
TIGRISAT 26 May 22:38:42 22:41:12 15° 91° (E) 22:43:41 435.000
ESTCUBE 1 26 May 22:45:12 22:48:32 21° 64° (ENE) 22:51:53 437.505/2401.250
RS-15 26 May 22:50:34 23:00:18 27° 358° (N) 23:10:17 29.354- 29.394
Oscar 11 26 May 22:52:43 22:55:37 18° 268° (W) 22:58:32 145.826/435.025
GONETS M04 26 May 22:54:58 23:03:48 90° 290° (WNW) 23:12:37
PHONESAT 2.4 26 May 23:00:58 23:03:02 16° 155° (SSE) 23:05:06 2401.200-2431.200
ZACube-1 26 May 23:05:39 23:07:58 14° 269° (W) 23:10:15 437.345
ISS 26 May 23:06:10 23:09:26 82° 326° (NW) 23:12:43 145.825
CUBEBUG 1 26 May 23:07:02 23:10:33 23° 66° (ENE) 23:14:04 437.445
DANDE 26 May 23:09:08 23:17:00 41° 69° (ENE) 23:24:21 436.750
DX 1 26 May 23:09:39 23:12:58 21° 64° (ENE) 23:16:17 434.975-435.025
ANTELSAT 26 May 23:10:54 23:14:51 34° 97° (E) 23:18:49 437.575/2403.000
VELOX 1 26 May 23:11:08 23:14:49 26° 66° (ENE) 23:18:30 145.980
50 SAT 26 May 23:18:17 23:21:24 27° 69° (ENE) 23:24:33 437.505
HUMSAT D 26 May 23:20:45 23:24:29 34° 263° (W) 23:28:13 437.325/437.525
AIST 1 26 May 23:22:15 23:24:57 16° 292° (WNW) 23:27:39
CUSAT 1 26 May 23:25:15 23:33:14 83° 80° (E) 23:39:54 437.405
PRISM 26 May 23:27:17 23:27:56 10° 301° (WNW) 23:28:35 437.425
Cosmos 2499 26 May 23:31:46 23:39:00 87° 279° (W) 23:46:50 435.465 / 435.565
AIST 2 26 May 23:38:00 23:42:08 67° 238° (WSW) 23:46:14 435.215
SPROUT 26 May 23:39:01 23:42:07 20° 65° (ENE) 23:45:13 437.525
AISAT 26 May 23:46:13 23:50:38 60° 72° (ENE) 23:55:03 437.250
UKube-1 26 May 23:59:37 00:03:51 55° 72° (ENE) 00:08:07 .
POPSAT HIP 1 27 May 00:02:47 00:06:08 23° 94° (E) 00:09:29 437.405
QB50P1 27 May 00:03:15 00:06:39 23° 95° (E) 00:10:03 145.935-145.965
QB50P2 27 May 00:05:05 00:08:39 26° 95° (E) 00:12:10 145.880/145.840
UNISAT 6 27 May 00:06:05 00:10:18 59° 287° (WNW) 00:14:34 437.425
POLYITAN 1 27 May 00:07:32 00:11:05 26° 95° (E) 00:14:39 437.675
TISAT 1 27 May 00:08:24 00:10:03 12° 61° (ENE) 00:11:42 437.305
TIGRISAT 27 May 00:14:02 00:18:12 51° 287° (WNW) 00:22:23 435.000
ESTCUBE 1 27 May 00:20:44 00:25:03 44° 262° (W) 00:29:23 437.505/2401.250
NANOSAT C BR1 27 May 00:21:54 00:25:46 35° 97° (E) 00:29:37 145.865
PHONESAT 2.4 27 May 00:36:23 00:39:20 39° 172° (S) 00:42:17 2401.200-2431.200
JAS-2 27 May 00:41:57 00:46:37 18° 84° (E) 00:50:59 435.910
CUBEBUG 1 27 May 00:42:33 00:46:38 36° 263° (W) 00:50:46 437.445
ISS 27 May 00:43:30 00:46:14 24° 348° (NNW) 00:49:00 145.825
DX 1 27 May 00:44:47 00:48:55 40° 262° (W) 00:53:04 434.975-435.025
VELOX 1 27 May 00:47:06 00:51:08 33° 263° (W) 00:55:12 145.980
ANTELSAT 27 May 00:48:01 00:51:24 23° 294° (WNW) 00:54:49 437.575/2403.000
DANDE 27 May 00:51:58 01:00:02 51° 269° (W) 01:07:29 436.750
50 SAT 27 May 00:52:26 00:55:09 20° 266° (W) 00:57:54 437.505
GONETS M04 27 May 00:55:39 01:01:55 21° 300° (WNW) 01:08:12
DUCHIFAT 1 27 May 01:00:45 01:04:57 88° 298° (WNW) 01:09:07 145.980
RS-15 27 May 01:06:03 01:17:22 40° 32° (NNE) 01:28:45 29.354- 29.394
CUSAT 1 27 May 01:08:55 01:14:11 20° 281° (W) 01:18:58 437.405
SPROUT 27 May 01:13:43 01:17:47 41° 262° (W) 01:21:53 437.525
SO-50 27 May 01:21:10 01:26:01 66° 122° (ESE) 01:30:54 436.795
BUGSAT 1 27 May 01:22:50 01:26:54 76° 102° (ESE) 01:30:54 437.445
AISAT 27 May 01:25:08 01:27:30 14° 270° (W) 01:29:52 437.250
Cosmos 2499 27 May 01:28:50 01:33:30 17° 301° (WNW) 01:38:23 435.465 / 435.565
UKube-1 27 May 01:37:50 01:40:14 14° 269° (W) 01:42:39 .
POPSAT HIP 1 27 May 01:38:14 01:41:58 32° 291° (WNW) 01:45:42 437.405
QB50P1 27 May 01:38:45 01:42:28 31° 291° (WNW) 01:46:10 145.935-145.965
QB50P2 27 May 01:40:48 01:44:25 29° 292° (WNW) 01:48:03 145.880/145.840
TISAT 1 27 May 01:40:54 01:45:08 73° 257° (WSW) 01:49:22 437.305
POLYITAN 1 27 May 01:43:16 01:46:52 28° 292° (WNW) 01:50:27 437.675
SWISSCUBE 27 May 01:57:31 02:01:52 37° 68° (ENE) 02:06:15 437.505
NANOSAT C BR1 27 May 01:58:07 02:01:18 21° 294° (WNW) 02:04:29 145.865
ITUPSAT 1 27 May 02:03:11 02:07:33 37° 68° (ENE) 02:11:57 437.325
PHONESAT 2.4 27 May 02:12:52 02:15:50 39° 188° (S) 02:18:47 2401.200-2431.200
ISS 27 May 02:20:48 02:23:25 22° 8° (N) 02:26:04 145.825
JAS-2 27 May 02:25:06 02:32:44 90° 314° (NW) 02:39:32 435.910
BEESAT 27 May 02:26:56 02:31:37 65° 73° (ENE) 02:36:22 436.000
Oscar 19 27 May 02:40:43 02:45:52 66° 102° (ESE) 02:50:58 437.125/150
Gurwin Techsat 1B 27 May 02:56:45 03:01:45 40° 98° (E) 03:06:43 435.225
BUGSAT 1 27 May 03:00:50 03:01:40 11° 300° (WNW) 03:02:30 437.445
SO-50 27 May 03:03:04 03:06:57 23° 320° (NW) 03:10:50 436.795
YUBILEINY 27 May 03:13:40 03:21:54 43° 72° (ENE) 03:30:07 435.215
RS-15 27 May 03:19:00 03:31:21 84° 239° (WSW) 03:43:38 29.354- 29.394
ITAMSAT 1 27 May 03:20:54 03:25:15 26° 94° (E) 03:29:36 435.822/435.867
SWISSCUBE 27 May 03:35:50 03:39:45 25° 265° (W) 03:43:41 437.505
KKS-1 27 May 03:36:03 03:40:16 42° 70° (ENE) 03:44:29 437.445
ITUPSAT 1 27 May 03:41:34 03:45:28 25° 266° (W) 03:49:24 437.325
AO-7 27 May 03:44:18 03:50:25 22° 91° (E) 03:56:29 29.400- 29.500
MOZHAYETS 4 27 May 03:45:40 03:49:52 38° 70° (ENE) 03:54:06
PHONESAT 2.4 27 May 03:50:01 03:52:08 17° 204° (SSW) 03:54:15 2401.200-2431.200
ISS 27 May 03:57:07 04:00:21 57° 28° (NNE) 04:03:35 145.825
BEESAT 27 May 04:07:18 04:09:52 14° 270° (W) 04:12:26 436.000
Cosmos 2491 27 May 04:09:56 04:18:08 45° 87° (E) 04:26:19 435.465 / 435.565
JAS-2 27 May 04:11:23 04:16:39 21° 306° (NW) 04:21:37 435.910
STARS 27 May 04:13:47 04:18:05 54° 72° (ENE) 04:22:24 437.465
Oscar 19 27 May 04:21:15 04:24:40 18° 300° (WNW) 04:28:03 437.125/150
Gurwin Techsat 1B 27 May 04:37:00 04:41:32 29° 295° (WNW) 04:46:02 435.225
Cosmos 2504 27 May 04:43:56 04:51:55 46° 74° (ENE) 05:00:16 435.465 / 435.565
HORYU 2 27 May 04:53:58 04:55:55 13° 90° (E) 04:57:52 437.375
ITAMSAT 1 27 May 04:59:57 05:04:51 42° 292° (WNW) 05:09:45 435.822/435.867
CUBESAT XI-V 27 May 05:08:56 05:13:07 34° 69° (ENE) 05:17:21 437.345
YUBILEINY 27 May 05:10:35 05:18:43 45° 273° (W) 05:26:53 435.215
KKS-1 27 May 05:13:45 05:17:01 20° 267° (W) 05:20:18 437.445
MOZHAYETS 4 27 May 05:23:35 05:27:09 22° 267° (W) 05:30:45
RS-15 27 May 05:33:18 05:42:00 23° 261° (W) 05:50:42 29.354- 29.394
ISS 27 May 05:34:04 05:36:33 20° 225° (SW) 05:39:02 145.825
AO-7 27 May 05:35:41 05:44:06 84° 290° (WNW) 05:52:28 29.400- 29.500
STARS 27 May 05:52:12 05:54:46 15° 269° (W) 05:57:21 437.465
